TimeEST,TemperatureF,Dew PointF,Humidity,Sea Level PressureIn,VisibilityMPH,Wind Direction,Wind SpeedMPH,Gust SpeedMPH,PrecipitationIn,Events,Conditions,WindDirDegrees,DateUTC
12:53 AM,46.9,39.9,77,30.31,10.0,Calm,Calm,-,N/A,,Scattered Clouds,0,2013-12-12 05:53:00
1:53 AM,45.0,39.0,80,30.30,10.0,NNW,4.6,-,N/A,,Partly Cloudy,330,2013-12-12 06:53:00
2:53 AM,45.0,37.9,76,30.31,10.0,NNW,6.9,-,N/A,,Clear,330,2013-12-12 07:53:00
3:53 AM,44.1,37.0,76,30.31,10.0,NNW,5.8,-,N/A,,Clear,330,2013-12-12 08:53:00
4:53 AM,43.0,36.0,76,30.31,10.0,NNW,4.6,-,N/A,,Clear,340,2013-12-12 09:53:00
5:53 AM,43.0,33.1,68,30.33,10.0,NNW,8.1,-,N/A,,Clear,340,2013-12-12 10:53:00
6:53 AM,42.1,30.9,65,30.35,10.0,NNW,4.6,-,N/A,,Clear,340,2013-12-12 11:53:00
7:53 AM,41.0,30.9,67,30.38,10.0,NW,4.6,-,N/A,,Clear,320,2013-12-12 12:53:00
8:53 AM,46.0,28.0,50,30.40,10.0,NNW,6.9,-,N/A,,Clear,340,2013-12-12 13:53:00
9:53 AM,48.9,28.9,46,30.42,10.0,North,5.8,-,N/A,,Clear,350,2013-12-12 14:53:00
10:53 AM,53.1,26.1,35,30.41,10.0,North,6.9,-,N/A,,Clear,360,2013-12-12 15:53:00
11:53 AM,55.0,26.1,33,30.38,10.0,NNW,6.9,-,N/A,,Clear,340,2013-12-12 16:53:00
12:53 PM,57.0,27.0,32,30.35,10.0,NNW,6.9,-,N/A,,Clear,340,2013-12-12 17:53:00
1:53 PM,59.0,25.0,27,30.32,10.0,NW,11.5,-,N/A,,Clear,320,2013-12-12 18:53:00
2:53 PM,60.1,25.0,26,30.31,10.0,North,10.4,-,N/A,,Clear,360,2013-12-12 19:53:00
3:53 PM,59.0,23.0,25,30.32,10.0,North,6.9,-,N/A,,Clear,360,2013-12-12 20:53:00
4:53 PM,55.9,24.1,29,30.32,10.0,North,4.6,-,N/A,,Clear,10,2013-12-12 21:53:00
5:53 PM,48.0,28.9,48,30.35,10.0,North,5.8,-,N/A,,Clear,350,2013-12-12 22:53:00
6:53 PM,46.0,28.0,50,30.36,10.0,North,4.6,-,N/A,,Clear,360,2013-12-12 23:53:00
7:53 PM,41.0,30.9,67,30.38,10.0,Calm,Calm,-,N/A,,Clear,0,2013-12-13 00:53:00
8:53 PM,37.9,30.9,76,30.38,10.0,Calm,Calm,-,N/A,,Clear,0,2013-12-13 01:53:00
9:53 PM,35.1,30.0,82,30.37,10.0,Calm,Calm,-,N/A,,Clear,0,2013-12-13 02:53:00
10:53 PM,34.0,30.0,85,30.37,10.0,Calm,Calm,-,N/A,,Clear,0,2013-12-13 03:53:00
11:53 PM,34.0,30.0,85,30.37,10.0,Calm,Calm,-,N/A,,Clear,0,2013-12-13 04:53:00